Date,TemperatureHighF,TemperatureAvgF,TemperatureLowF,DewpointHighF,DewpointAvgF,DewpointLowF,HumidityHigh,HumidityAvg,HumidityLow,PressureMaxIn,PressureMinIn,WindSpeedMaxMPH,WindSpeedAvgMPH,GustSpeedMaxMPH,PrecipitationSumIn
2013-9-1,95.7,85.1,77.7,73.0,70.4,67.9,79,63,45,29.96,29.84,2,0,9,0.00
2013-9-2,96.4,85.3,76.5,73.3,70.2,68.2,79,62,42,30.00,29.86,3,0,11,0.00
2013-9-3,92.7,83.0,76.6,74.5,70.5,66.2,79,67,53,29.99,29.90,8,0,18,0.00
2013-9-4,95.0,80.2,73.2,73.6,69.6,67.2,84,72,47,30.06,29.95,6,0,17,0.06
2013-9-5,92.1,80.5,73.0,74.5,70.5,68.0,86,73,51,30.12,30.01,6,0,17,0.01
2013-9-6,92.8,80.0,73.4,74.0,69.9,67.3,86,73,48,30.12,29.99,4,0,11,0.00
2013-9-7,93.2,81.4,73.8,73.8,69.0,66.5,84,68,47,30.06,29.95,8,1,18,0.00
2013-9-8,91.2,79.1,70.2,70.7,66.7,64.4,85,68,43,30.03,29.93,3,0,9,0.00
2013-9-9,91.6,79.5,68.9,72.4,67.1,63.4,85,68,46,30.05,29.96,6,1,18,0.00
2013-9-10,91.6,80.8,71.4,72.3,68.7,65.5,84,68,49,30.12,30.01,5,0,12,0.00
2013-9-11,92.3,82.0,73.6,72.1,68.8,66.8,83,66,46,30.12,30.02,5,0,11,0.00
2013-9-12,94.1,81.6,71.4,71.6,66.7,63.8,84,63,37,30.06,29.91,4,1,10,0.00
2013-9-13,95.0,82.5,73.8,71.4,68.4,64.8,82,64,43,29.95,29.81,8,1,22,0.12
2013-9-14,89.8,80.3,73.0,70.5,68.9,66.9,85,70,51,29.98,29.88,4,0,11,0.01
2013-9-15,91.2,80.8,71.2,72.0,67.6,64.0,79,66,45,30.06,29.95,5,0,11,0.00
2013-9-16,93.0,81.9,72.1,73.6,68.7,66.0,85,66,46,30.07,29.99,5,1,11,0.00
2013-9-17,93.2,82.3,72.5,72.9,68.7,66.5,84,65,47,30.09,29.95,3,0,10,0.00
2013-9-18,93.6,81.4,73.8,73.9,69.2,66.9,82,68,47,30.05,29.94,6,1,17,0.00
2013-9-19,90.3,79.6,74.3,73.2,70.1,68.5,85,73,55,30.03,29.93,7,1,18,0.04
2013-9-20,87.1,78.5,74.8,74.3,72.4,70.1,85,82,63,29.97,29.77,8,1,20,0.57
2013-9-21,78.6,73.4,70.7,73.8,69.8,67.7,95,88,84,29.81,29.73,23,2,56,1.75
2013-9-22,78.8,69.7,65.8,69.8,63.8,59.2,97,83,52,29.85,29.76,7,2,20,0.01
2013-9-23,86.4,75.6,64.4,75.5,68.0,59.8,90,78,62,29.85,29.77,4,0,12,0.00
2013-9-24,88.3,80.4,73.8,79.8,74.9,70.7,95,84,64,29.85,29.79,9,1,23,0.02
2013-9-25,88.7,77.0,68.0,75.3,65.8,58.5,95,72,37,29.87,29.78,5,1,12,0.00
2013-9-26,87.4,75.2,63.3,70.2,64.2,60.7,93,71,45,29.96,29.83,4,0,9,0.00
2013-9-27,87.1,75.7,65.3,71.4,66.2,62.9,94,75,49,30.03,29.93,5,0,8,0.00
2013-9-28,86.4,78.2,69.6,72.2,68.6,66.5,92,74,52,30.07,29.98,6,1,11,0.00
2013-9-29,83.1,75.5,72.1,72.1,70.1,67.3,93,84,66,30.04,29.94,4,0,9,0.07
2013-9-30,82.4,74.6,72.0,74.6,71.4,69.5,94,90,76,29.95,29.88,4,0,10,0.00